Location: Vista Encantada
(35.1109°N, 106.5681°W)
Time: 09:07:07
(UTC+00:00)

SKYMED 2 - Pass Details

Date: 29 October 2020
Orbit: 621 x 623 km, 97.9° (Epoch: 04 December)

Event Time Altitude Azimuth Distance (km) Brightness Sun altitude
Rises 12:31:57 0° 172° (S) 2,887 7.2 -11.5°
Reaches altitude 10° 12:34:08 10° 174° (S) 1,985 6.4 -11.0°
Maximum altitude 12:38:27 71° 258° (WSW) 660 3.5 -10.2°
Drops below altitude 10° 12:42:48 10° 343° (NNW) 1,999 5.9 -9.3°
Sets 12:45:00 0° 346° (NNW) 2,910 6.8 -8.8°
